[[{"header":{"parameterUnit":"m.s-1","parameterCategory":1,"la1":30.2991,"la2":30.254,"lo1":-89.0895,"lo2":-89.0444,"dy":0.0017,"dx":0.0017,"nx":28,"ny":28,"refTime":"2023-10-05T09:00:00:Z","depth":0,"parameterNumber":2,"parameterNumberName":"U-component_of_WINDS"},"data":[0,0,0,0,0,0,0,0,0,0,0,0,0,0,0,0,0,0,0,0,0,0,0,0,0,0,0,0,0,0,0,0,0,0,0,0,0,0,0,0,0,0,0,0,0,0,0,0,0,0,0,0,0,0,0,0,0,0,-4.4108,-4.4108,0,-4.4175,-4.4176,-4.4177,-4.4049,-4.4045,-4.404,-4.4036,-4.4108,-4.4114,-4.412,0,0,0,0,0,0,0,0,0,0,0,0,0,-4.3871,-4.3876,-4.4108,-4.4108,-4.4109,-4.4175,-4.4176,-4.4177,-4.405,-4.4045,-4.4039,-4.4035,-4.4107,-4.4113,-4.4121,0,0,0,0,0,0,0,0,0,0,0,0,0,-4.396,-4.3877,-4.4107,-4.4054,-4.405,-4.4175,-4.4176,-4.4177,-4.4051,-4.4044,-4.4038,-4.4032,-4.4104,-4.4113,-4.4121,-4.4303,0,0,-4.4148,-4.4152,0,0,0,0,0,0,0,0,-4.3955,-4.3968,-4.4061,-4.4058,-4.4053,-4.4097,-4.4119,-4.4219,-4.4052,-4.405,-4.4036,-4.4029,-4.411,-4.4118,-4.4145,-4.4306,-4.4309,-4.4149,-4.4154,-4.4158,-4.4161,0,0,0,0,0,0,0,-4.3949,-4.3965,-4.4134,-4.4062,-4.4058,-4.4027,-4.4032,-4.4137,-4.4115,-4.405,-4.4041,-4.4051,-4.4107,-4.4136,-4.4145,-4.4311,-4.4149,-4.4157,-4.4162,-4.4166,-4.4625,-4.4632,0,0,0,0,0,0,-4.3949,-4.3961,-4.4132,-4.4136,-4.3987,-4.4036,-4.4043,-4.4089,-4.4114,-4.4111,-4.4056,-4.4044,-4.4125,-4.4135,-4.4147,-4.4362,-4.4158,-4.4166,-4.4171,-4.4618,-4.4627,-4.4634,0,0,0,0,0,0,-4.3944,-4.3965,-4.4129,-4.4046,-4.4064,-4.4047,-4.4101,-4.4094,-4.4124,-4.4118,-4.4114,-4.409,-4.412,-4.4135,-4.4265,-4.4363,-4.417,-4.4178,-4.461,-4.4621,-4.463,-4.4793,0,0,0,0,0,0,-4.3938,-4.3965,-4.4033,-4.4048,-4.4069,-4.4246,-4.4107,-4.41,-4.4139,-4.4124,-4.4149,-4.4147,-4.4116,-4.4253,-4.4274,-4.4372,-4.4185,-4.4601,-4.4615,-4.4627,-4.4779,-4.4808,-4.4833,0,0,0,0,0,-4.393,-4.4077,-4.4037,-4.4059,-4.4155,-4.4252,-4.4264,-4.4225,-4.4147,-4.4216,-4.4212,-4.4146,-4.4348,-4.4267,-4.429,-4.4392,-4.4595,-4.4611,-4.4626,-4.4767,-4.4802,-4.4832,0,0,0,0,0,0,-4.4074,-4.4078,-4.4034,-4.419,-4.4222,-4.423,-4.4316,-4.4263,-4.4318,-4.4302,-4.4252,-4.4258,-4.4399,-4.4408,-4.4317,-4.4569,-4.4459,-4.448,-4.4558,-4.4592,-4.4618,-4.4614,-4.4193,0,0,0,0,0,-4.4124,-4.4202,-4.4201,-4.4339,-4.4357,-4.4334,-4.4375,-4.4342,-4.4373,-4.4386,-4.4391,-4.4425,-4.4496,-4.4544,-4.4609,-4.4779,-4.4783,-4.486,-4.4887,-4.4909,-4.4928,-4.502,-4.5054,-4.4685,-4.4685,-4.4685,0,0,-4.4228,-4.424,-4.4292,-4.4368,-4.4389,-4.4472,-4.4346,-4.4439,-4.45,-4.44,-4.4523,-4.4529,-4.4563,-4.4714,-4.4781,-4.4726,-4.5031,-4.4929,-4.4946,-4.4954,-4.5039,-4.5074,-4.5106,-4.4696,-4.4694,-4.4692,0,0,-4.4461,-4.4477,-4.4593,-4.4616,-4.4648,-4.4632,-4.466,-4.4677,-4.4677,-4.4799,-4.4726,-4.4798,-4.4921,-4.4949,-4.4979,-4.5221,-4.5162,-4.5243,-4.5384,-4.5474,-4.5503,-4.5528,-4.5616,-4.5648,-4.5262,-4.5262,-4.5263,0,-4.4586,-4.4707,-4.466,-4.4758,-4.4794,-4.4706,-4.4824,-4.4849,-4.4902,-4.4929,-4.4866,-4.5018,-4.5035,-4.5192,-4.5251,-4.5278,-4.5309,-4.5241,-4.5502,-4.5527,-4.555,-4.5634,-4.5666,-4.5272,-4.5271,-4.527,-4.5269,0,-4.4861,-4.4946,-4.5036,-4.5088,-4.5134,-4.5242,-4.5212,-4.5264,-4.5227,-4.5218,-4.5344,-4.536,-4.5427,-4.5462,-4.5426,-4.5614,-4.5579,-4.551,-4.5399,-4.5596,-4.5673,-4.5705,-4.5286,-4.5283,-4.528,-4.5277,0,0,-4.5188,-4.5211,-4.5246,-4.5268,-4.5297,-4.5362,-4.5466,-4.553,-4.5577,-4.5616,-4.5702,-4.5808,-4.5744,-4.5779,-4.5745,-4.5824,-4.6016,-4.5745,-4.5745,-4.5796,-4.6225,-4.6279,-4.6316,-4.5977,-4.5983,-4.5987,-4.6223,0,-4.5419,-4.5597,-4.5558,-4.5734,-4.5812,-4.5729,-4.5819,-4.5847,-4.5841,-4.5908,-4.59,-4.5977,-4.5886,-4.5907,-4.5981,-4.5977,-4.6102,-4.5959,-4.6059,-4.6063,-4.6054,-4.6356,-4.6412,-4.6634,-4.6253,-4.6258,-4.6261,0,-4.5713,-4.5762,-4.5946,-4.5962,-4.5994,-4.6076,-4.6132,-4.6196,-4.6226,-4.6216,-4.6254,-4.6205,-4.6309,-4.6195,-4.6338,-4.6242,-4.628,-4.6285,-4.6292,-4.6302,-4.6175,-4.6375,-4.6704,-4.6738,-4.6308,-4.6305,-4.6301,0,-4.5935,-4.6047,-4.6171,-4.6193,-4.6215,-4.6275,-4.6286,-4.631,-4.6351,-4.64,-4.6427,-4.6488,-4.6522,-4.657,-4.654,-4.646,-4.6689,-4.6572,-4.6685,-4.6686,-4.6738,-4.6736,-4.708,-4.676,-4.676,-4.6759,-4.6758,0,-4.6198,-4.6315,-4.6271,-4.6348,-4.6476,-4.6429,-4.6557,-4.6559,-4.6581,-4.6657,-4.6589,-4.6662,-4.6616,-4.6687,-4.6663,-4.6786,-4.6801,-4.6797,-4.679,-4.6804,-4.6805,-4.683,-4.6814,-4.6768,-4.6766,-4.6764,-4.6763,0,-4.6469,-4.6444,-4.6574,-4.6584,-4.6589,-4.6683,-4.6691,-4.6763,-4.6751,-4.6848,-4.6869,-4.6851,-4.693,-4.6903,-4.6988,-4.6972,-4.7129,-4.7101,-4.7119,-4.7113,-4.7227,-4.7217,-4.76,-4.7649,-4.7297,-4.73,-4.7303,0,-4.6639,-4.6726,-4.6745,-4.6791,-4.6807,-4.6882,-4.6923,-4.688,-4.6927,-4.6967,-4.7035,-4.7107,-4.7163,-4.7293,-4.7288,-4.7353,-4.7327,-4.7457,-4.7337,-4.7349,-4.7331,-4.7327,-4.7336,-4.7482,-4.7486,-4.7489,-4.7492,0,-4.6945,-4.6929,-4.6991,-4.7049,-4.71,-4.7145,-4.7182,-4.7224,-4.7183,-4.7239,-4.7318,-4.7362,-4.7448,-4.7521,-4.7579,-4.7592,-4.7537,-4.7529,-4.7559,-4.7576,-4.7583,-4.7582,-4.7186,-4.7521,-4.7518,-4.7516,-4.7514,-4.7513,-4.7172,-4.7246,-4.727,-4.7342,-4.7365,-4.7402,-4.7471,-4.7467,-4.7532,-4.7598,-4.7568,-4.7661,-4.7688,-4.776,-4.7781,-4.7853,-4.7803,-4.7846,-4.7857,-4.7869,-4.7885,-4.757,-4.7863,-4.7863,-4.7862,-4.7861,-4.786,0,-4.7475,-4.7487,-4.7553,-4.7608,-4.7665,-4.7605,-4.7644,-4.7696,-4.7777,-4.7807,-4.7863,-4.7955,-4.8025,-4.8026,-4.8091,-4.8149,-4.8125,-4.8168,-4.8164,-4.8169,-4.7924,-4.7893,-4.8186,-4.8186,-4.8186,-4.8186,-4.8186,-4.8186,-4.764,-4.7762,-4.7749,-4.7882,-4.7892,-4.7981,-4.8009,-4.8043,-4.8066,-4.8172,-4.823,-4.8229,-4.8247,-4.8314,-4.8376,-4.8375,-4.8403,-4.8456,-4.8445,-4.8218,-4.8186,-4.8155,-4.8125,-4.8462,-4.8463,-4.8683,-4.8685,-4.8687]},{"header":{"parameterUnit":"m.s-1","parameterCategory":1,"la1":30.2991,"la2":30.254,"lo1":-89.0895,"lo2":-89.0444,"dy":0.0017,"dx":0.0017,"nx":28,"ny":28,"refTime":"2023-10-05T09:00:00:Z","depth":0,"parameterNumber":3,"parameterNumberName":"V-component_of_WINDS"},"data":[0,0,0,0,0,0,0,0,0,0,0,0,0,0,0,0,0,0,0,0,0,0,0,0,0,0,0,0,0,0,0,0,0,0,0,0,0,0,0,0,0,0,0,0,0,0,0,0,0,0,0,0,0,0,0,0,0,0,-2.1982,-2.1983,0,-2.2064,-2.2065,-2.2066,-2.2097,-2.2097,-2.2096,-2.2096,-2.2176,-2.2178,-2.218,0,0,0,0,0,0,0,0,0,0,0,0,0,-2.1846,-2.1848,-2.1982,-2.1983,-2.1984,-2.2064,-2.2065,-2.2066,-2.2097,-2.2097,-2.2096,-2.2096,-2.2175,-2.2178,-2.218,0,0,0,0,0,0,0,0,0,0,0,0,0,-2.1914,-2.1849,-2.1982,-2.2009,-2.2012,-2.2064,-2.2065,-2.2067,-2.2097,-2.2097,-2.2096,-2.2096,-2.2174,-2.2177,-2.2181,-2.221,0,0,-2.2192,-2.2193,0,0,0,0,0,0,0,0,-2.191,-2.1919,-2.2004,-2.2007,-2.2011,-2.207,-2.2046,-2.2114,-2.2097,-2.2065,-2.2096,-2.2096,-2.214,-2.2147,-2.2163,-2.2214,-2.2217,-2.2192,-2.2194,-2.2196,-2.2197,0,0,0,0,0,0,0,-2.1905,-2.1916,-2.2014,-2.2005,-2.2009,-2.2015,-2.2025,-2.2059,-2.2103,-2.2067,-2.207,-2.2079,-2.2142,-2.2159,-2.2165,-2.2218,-2.2192,-2.2195,-2.2197,-2.2198,-2.2297,-2.2297,0,0,0,0,0,0,-2.1897,-2.1911,-2.2012,-2.2017,-2.1959,-2.2018,-2.2029,-2.2051,-2.2103,-2.2111,-2.208,-2.2081,-2.2154,-2.2161,-2.2168,-2.2205,-2.2196,-2.2199,-2.2201,-2.2296,-2.2297,-2.2297,0,0,0,0,0,0,-2.1894,-2.1905,-2.2008,-2.1965,-2.1978,-2.2021,-2.2046,-2.2053,-2.207,-2.2113,-2.212,-2.2089,-2.2154,-2.2163,-2.2199,-2.2208,-2.22,-2.2204,-2.2295,-2.2296,-2.2297,-2.228,0,0,0,0,0,0,-2.189,-2.1904,-2.1917,-2.1965,-2.1981,-2.204,-2.2047,-2.2055,-2.2077,-2.2079,-2.2124,-2.2131,-2.2154,-2.2194,-2.2203,-2.2213,-2.2206,-2.2295,-2.2296,-2.2297,-2.228,-2.228,-2.228,0,0,0,0,0,-2.1885,-2.1908,-2.1917,-2.1929,-2.1998,-2.204,-2.2049,-2.2077,-2.2077,-2.209,-2.2117,-2.2129,-2.2206,-2.2198,-2.2208,-2.2219,-2.2294,-2.2296,-2.2297,-2.228,-2.228,-2.228,0,0,0,0,0,0,-2.1858,-2.1915,-2.1926,-2.1965,-2.1998,-2.2046,-2.2062,-2.2076,-2.2108,-2.2108,-2.214,-2.215,-2.2184,-2.2205,-2.2195,-2.225,-2.2251,-2.2254,-2.2235,-2.2235,-2.2235,-2.2229,-2.2209,0,0,0,0,0,-2.1857,-2.1888,-2.1936,-2.1966,-2.1982,-2.2019,-2.2039,-2.2057,-2.2092,-2.2105,-2.2135,-2.2167,-2.2198,-2.2218,-2.2249,-2.2283,-2.2293,-2.2296,-2.2296,-2.2296,-2.2298,-2.2318,-2.2319,-2.2301,-2.2301,-2.2301,0,0,-2.1854,-2.1889,-2.1907,-2.1961,-2.1989,-2.2019,-2.203,-2.2062,-2.2085,-2.211,-2.2147,-2.2169,-2.2207,-2.2242,-2.2259,-2.2261,-2.2306,-2.2297,-2.2297,-2.2299,-2.2319,-2.2321,-2.2322,-2.2302,-2.2301,-2.2301,0,0,-2.1865,-2.1895,-2.1924,-2.1952,-2.1994,-2.2019,-2.2025,-2.2071,-2.2088,-2.2125,-2.2145,-2.2171,-2.2224,-2.225,-2.227,-2.2291,-2.2304,-2.23,-2.2301,-2.2319,-2.2321,-2.2322,-2.2329,-2.2332,-2.2303,-2.2302,-2.2302,0,-2.1856,-2.1905,-2.1936,-2.1968,-2.199,-2.2016,-2.2044,-2.2069,-2.2118,-2.2133,-2.2134,-2.2202,-2.2229,-2.2271,-2.2276,-2.2292,-2.2299,-2.2295,-2.2318,-2.232,-2.2322,-2.2329,-2.2332,-2.2302,-2.2302,-2.2302,-2.2302,0,-2.1892,-2.1925,-2.1943,-2.1992,-2.2017,-2.2046,-2.208,-2.2101,-2.2118,-2.2142,-2.2179,-2.2213,-2.2251,-2.2262,-2.2278,-2.2306,-2.2306,-2.2312,-2.2314,-2.2322,-2.233,-2.2333,-2.2301,-2.2301,-2.2301,-2.2301,0,0,-2.1888,-2.1954,-2.196,-2.1983,-2.2031,-2.2057,-2.2087,-2.2126,-2.2143,-2.2176,-2.2201,-2.2246,-2.2253,-2.2275,-2.2294,-2.2311,-2.2325,-2.2315,-2.2316,-2.2315,-2.2357,-2.2352,-2.2355,-2.2333,-2.2334,-2.2334,-2.2354,0,-2.1905,-2.1962,-2.1991,-2.2035,-2.2066,-2.209,-2.2116,-2.2148,-2.2171,-2.2199,-2.2224,-2.2255,-2.2262,-2.2276,-2.2293,-2.2319,-2.2333,-2.2318,-2.2356,-2.2357,-2.2346,-2.2358,-2.2353,-2.237,-2.2357,-2.2358,-2.2358,0,-2.1933,-2.1968,-2.2015,-2.2061,-2.2074,-2.2098,-2.2136,-2.2163,-2.2198,-2.2214,-2.224,-2.2258,-2.2289,-2.2289,-2.2332,-2.2321,-2.2338,-2.2353,-2.2354,-2.2359,-2.2358,-2.2363,-2.2376,-2.2378,-2.2363,-2.2362,-2.2362,0,-2.1925,-2.1983,-2.202,-2.2038,-2.2092,-2.2107,-2.213,-2.2166,-2.2187,-2.222,-2.2234,-2.2269,-2.2288,-2.2314,-2.2341,-2.2339,-2.2381,-2.2383,-2.2394,-2.2393,-2.2402,-2.2401,-2.2417,-2.2413,-2.2413,-2.2413,-2.2413,0,-2.1941,-2.1969,-2.2017,-2.2039,-2.2071,-2.2103,-2.2133,-2.2157,-2.2188,-2.2215,-2.2237,-2.2261,-2.2296,-2.2323,-2.2344,-2.2376,-2.2384,-2.2397,-2.2402,-2.2395,-2.2393,-2.2406,-2.2406,-2.2414,-2.2414,-2.2413,-2.2413,0,-2.1938,-2.1971,-2.2012,-2.206,-2.2072,-2.2093,-2.2133,-2.2155,-2.2179,-2.2212,-2.2221,-2.2259,-2.2293,-2.2323,-2.2367,-2.2381,-2.2413,-2.242,-2.2402,-2.2404,-2.2413,-2.2412,-2.2439,-2.2444,-2.2436,-2.2436,-2.2436,0,-2.1946,-2.1968,-2.2019,-2.2039,-2.2062,-2.2093,-2.2116,-2.2148,-2.217,-2.2213,-2.2229,-2.2265,-2.2295,-2.2347,-2.2378,-2.2411,-2.2419,-2.2426,-2.2424,-2.2416,-2.2418,-2.2417,-2.2419,-2.2425,-2.2425,-2.2425,-2.2425,0,-2.1956,-2.1972,-2.2005,-2.2043,-2.207,-2.2101,-2.2133,-2.2148,-2.2186,-2.2209,-2.2245,-2.2268,-2.2314,-2.2349,-2.2386,-2.2407,-2.2422,-2.2426,-2.243,-2.2423,-2.2411,-2.2417,-2.2401,-2.2425,-2.2425,-2.2425,-2.2425,-2.2425,-2.1959,-2.198,-2.2019,-2.2055,-2.2082,-2.2112,-2.2134,-2.2162,-2.2193,-2.2234,-2.2251,-2.2286,-2.2321,-2.2373,-2.2395,-2.2422,-2.2425,-2.2431,-2.2432,-2.2433,-2.2432,-2.2407,-2.2429,-2.2429,-2.2429,-2.2429,-2.2429,0,-2.1971,-2.1997,-2.203,-2.2075,-2.2102,-2.2116,-2.2151,-2.2173,-2.2205,-2.2237,-2.2267,-2.2307,-2.2341,-2.2374,-2.241,-2.2425,-2.2433,-2.2433,-2.2432,-2.2437,-2.2428,-2.2421,-2.2427,-2.2427,-2.2427,-2.2427,-2.2427,-2.2427,-2.198,-2.2016,-2.2036,-2.2086,-2.2112,-2.2149,-2.2168,-2.2195,-2.2221,-2.2265,-2.2294,-2.2316,-2.2349,-2.2386,-2.2418,-2.2426,-2.2438,-2.2437,-2.2447,-2.2438,-2.2438,-2.2437,-2.2431,-2.2439,-2.2439,-2.2454,-2.2454,-2.2454]}]]